Weather History for CWPR - October, 2012

Change the Weather History Date:

Thursday, October 4, 2012

  Actual Average Record
Temperature  
Mean Temperature 40 °F -  
Max Temperature 60 °F - - ()
Min Temperature 20 °F - - ()
Degree Days  
Heating Degree Days 25    
Moisture  
Dew Point 18 °F    
Average Humidity 46    
Maximum Humidity 79    
Minimum Humidity 9    
Precipitation  
Precipitation 0.00 in - - ()
Sea Level Pressure  
Sea Level Pressure 30.44 in    
Wind  
Wind Speed 0 mph ()    
Max Wind Speed 5 mph    
Max Gust Speed -    
T = Trace of Precipitation, MM = Missing Value Source: Averaged Metar Reports

Daily Weather History Graph

Daily Weather History Graph

Search for Another Location

Airport or City:

Trip Planner

Search our weather history database for the weather conditions in past years. The results will help you decide how hot, cold, wet, or windy it might be!

Date:

Astronomy

Oct. 04, 2012 Rise Set
Actual Time 7:07 AM PDT 6:32 PM PDT
Civil Twilight 6:35 AM PDT 7:04 PM PDT
Nautical Twilight 5:58 AM PDT 7:41 PM PDT
Astronomical Twilight 5:20 AM PDT 8:19 PM PDT
Moon 8:46 PM PDT (10/4) 11:54 AM PDT (10/4)
Length of Visible Light 12h 29m
Length of Day
11h 25m
Waning Gibbous, 81% of the Moon is Illuminated
Oct 4
Waning Gibbous
Oct 8
Last Quarter
Oct 15
New
Oct 21
First Quarter
Oct 29
Full

Hourly Weather History & Observations

Time (PDT) Temp. Dew Point Humidity Pressure Visibility Wind Dir Wind Speed Gust Speed Precip Events Conditions
12:00 AM 31.6 °F 18.5 °F 58% 30.44 in - Calm Calm - N/A   Unknown
1:00 AM 30.2 °F 18.0 °F 60% 30.44 in - Calm Calm - N/A   Unknown
2:00 AM 28.9 °F 18.1 °F 64% 30.45 in - Calm Calm - N/A   Unknown
3:00 AM 26.4 °F 17.2 °F 68% 30.45 in - Calm Calm - N/A   Unknown
4:00 AM 25.5 °F 17.1 °F 70% 30.47 in - Calm Calm - N/A   Unknown
5:00 AM 24 °F 17 °F 63% 30.48 in - Calm Calm - -  
5:00 AM 23.9 °F 16.5 °F 73% 30.48 in - Calm Calm - N/A   Unknown
6:00 AM 22.3 °F 16.2 °F 77% 30.50 in - Calm Calm - N/A   Unknown
7:00 AM 22.1 °F 16.3 °F 79% 30.51 in - Calm Calm - N/A   Unknown
8:00 AM 24.6 °F 17.1 °F 73% 30.52 in - Calm Calm - N/A   Unknown
9:00 AM 30.4 °F 19.0 °F 63% 30.52 in - Calm Calm - N/A   Unknown
10:00 AM 35.1 °F 19.6 °F 53% 30.51 in - Calm Calm - N/A   Unknown
11:00 AM 40 °F 19 °F 30% 30.49 in - Calm Calm - -  
11:00 AM 40.1 °F 19.4 °F 43% 30.49 in - Calm Calm - N/A   Unknown
12:00 PM 45.5 °F 19.2 °F 35% 30.45 in - SW 1.2 mph - N/A   Unknown
1:00 PM 50.2 °F 20.3 °F 31% 30.42 in - Calm Calm - N/A   Unknown
2:00 PM 55.9 °F 20.8 °F 26% 30.38 in - SSE 1.2 mph - N/A   Unknown
3:00 PM 59.4 °F 20.1 °F 22% 30.36 in - ESE 2.3 mph - N/A   Unknown
4:00 PM 59.0 °F 14.2 °F 17% 30.35 in - NNE 3.5 mph - N/A   Unknown
5:00 PM 58 °F 14 °F 9% 30.36 in - NNW 4.6 mph - -  
5:00 PM 57.9 °F 14.2 °F 18% 30.36 in - NNW 4.6 mph - N/A   Unknown
6:00 PM 52.7 °F 15.6 °F 23% 30.37 in - WNW 1.2 mph - N/A   Unknown
7:00 PM 47.7 °F 16.9 °F 29% 30.38 in - NW 1.2 mph - N/A   Unknown
8:00 PM 45.5 °F 18.3 °F 34% 30.39 in - Calm Calm - N/A   Unknown
9:00 PM 41.0 °F 17.8 °F 39% 30.40 in - Calm Calm - N/A   Unknown
10:00 PM 38.5 °F 18.1 °F 44% 30.41 in - Calm Calm - N/A   Unknown
11:00 PM 36 °F 18 °F 34% 30.43 in - Calm Calm - -  
11:00 PM 35.6 °F 18.0 °F 49% 30.43 in - Calm Calm - N/A   Unknown